HAIYANG 2C

Satellite information

Favourite Embed

Satellite Type and Status

PAYLOADIN ORBIT

Key statistics

Satellite HAIYANG 2C at a glance.

Uptime

1749

Days in orbit

Revolutions

≈ 13.8

Per day

Orbit

LEO

Low Earth Orbit

Inclination

66.0

Latest

Satellite identification and parameters

Extended collection of information and parameters for HAIYANG 2C.

Object identification

Identified? True

Debris? False

Object name: HAIYANG 2C

International designator: 2020-066A

Object number (NORAD): 46469

Object ID (CCSDS): 46469

Country: PEOPLES REPUBLIC OF CHINA (PRC)

Current information (Y/N): Y

RCS size: LARGE

Orbital parameters

Period: 104.093 minutes

Inclination: 65.9973 deg

SMA: 7330.079 km

Apoapsis: 960.841 km

Periapsis: 943.046 km

RAAN: 357.5284 deg

Eccentricy: 0.0012138

Argument of periapsis: 291.8684 deg

Mean anomaly: 68.1093 deg

Mean motion: 13.83374676 rev/day

Mean motion (dot): -0.0000004 rev/day2

B* drag term: 0.000037835 1/REarth

Two-line elements (TLE)

Creation date: July 5, 2025, 10:26 p.m.

Reference frame: TEME

Reference center: EARTH

Epoch: July 5, 2025, 8:58 p.m. UTC

TLE line 0: 0 HAIYANG 2C

TLE line 1: 1 46469U 20066A 25186.87381924 -.00000040 00000-0 37835-4 0 9992

TLE line 2: 2 46469 65.9973 357.5284 0012138 291.8684 68.1093 13.83374676241885

Live tracking on map

Real-time ground track for satellite HAIYANG 2C.

In-orbit conjunctions

There are no conjunctions computed for HAIYANG 2C, at the moment. Check back to stay up to date, as we update our databases every day.

Go to all conjunctions

Associated space launch

Haiyang (Chinese: "Ocean"), abbreviated HY, is a marine remote sensing satellite series planned by China.

HAIYANG 2C was lifted into orbit during the mission ‘Long March 4B | Haiyang 2C’, on board a Long March 4B space rocket.

The launch took place on Sept. 21, 2020, 5:40 a.m. from Launch Area 4 (SLS-2 / 603).

For more information about the launch, click the button.

Launch to space Long March 4B | Haiyang 2C
Long March 4B | Haiyang 2C

Agency: N/A

Status: Launch Successful

Launch date: Sept. 21, 2020, 5:40 a.m. UTC

Rocket: Long March 4B

Launch pad: Launch Area 4 (SLS-2 / 603)

Location: Jiuquan Satellite Launch Center, People's Republic of China

...

Latest news about this satellite

News about space launch
Long March 4B launches new ocean observation satellite

News about space launch
China launches Haiyang oceanography satellite

News about space launch
China successfully launches satellites from ocean-going platform


Newsletter sign-up

Weekly statistics, charts and insights to help you stay on top of the space industry.